Location: Unspecified
(0.0000°N, 0.0000°E)
Time: 11:17:01
(UTC+00:00)

deb r/b Ablestar - Pass Details

Date: 18 April 2026
Orbit: 834 x 1371 km, 65.9° (Epoch: 10 May)

Event Time Altitude Azimuth Distance (km) Brightness Sun altitude
Exits shadow 05:23:26 - 231° (SW) 3,392 ? -8.8°
Reaches altitude 10° 05:24:40 10° 236° (WSW) 3,046 ? -8.5°
Maximum altitude 05:30:46 28° 293° (WNW) 2,121 ? -7.0°
Drops below altitude 10° 05:37:25 10° 349° (NNW) 3,328 ? -5.4°
Sets 05:40:52 0° 360° (N) 4,347 ? -4.6°
